Buffalo, NY

2:50 PM EST on November 20, 2017 (GMT -0500)
Buffalo Niagara International

Weather History for KBUF - December, 2012

Change the Weather History Date:

Saturday, December 29, 2012

  Actual Average Record
Temperature  
Mean Temperature 26 °F 27 °F  
Max Temperature 28 °F 33 °F 61 °F (1984)
Min Temperature 24 °F 21 °F -7 °F (1933)
Degree Days  
Heating Degree Days 39 38  
Month to date heating degree days 809 1005  
Since 1 July heating degree days 2088 2338  
Cooling Degree Days 0 0  
Month to date cooling degree days 0 0  
Year to date cooling degree days 875 544  
Moisture  
Dew Point 23 °F    
Average Humidity 87    
Maximum Humidity 92    
Minimum Humidity 81    
Precipitation  
Precipitation 0.23 in 0.12 in 1.36 in (1990)
Month to date precipitation 3.64 3.64  
Year to date precipitation 32.80 40.23  
Snow  
Snow 2.90 in 1.00 in 12.20 in (1915)
Month to date snowfall 19.6 25.3  
Since 1 July snowfall 22.0 34.1  
Snow Depth 9.00 in    
Sea Level Pressure  
Sea Level Pressure 29.81 in    
Wind  
Wind Speed 9 mph (North)    
Max Wind Speed 16 mph    
Max Gust Speed 20 mph    
Visibility 4 miles    
Events Fog , Snow    
T = Trace of Precipitation, MM = Missing Value Source: NWS Daily Summary

Daily Weather History Graph

Daily Weather History Graph

Search for Another Location

Airport or City:

Trip Planner

Search our weather history database for the weather conditions in past years. The results will help you decide how hot, cold, wet, or windy it might be!

Date:

Astronomy

Dec. 29, 2012 Rise Set
Actual Time 7:45 AM EST 4:48 PM EST
Civil Twilight 7:13 AM EST 5:21 PM EST
Nautical Twilight 6:37 AM EST 5:56 PM EST
Astronomical Twilight 6:03 AM EST 6:31 PM EST
Moon 6:22 PM EST (12/29) 8:15 AM EST (12/29)
Length of Visible Light 10h 07m
Length of Day
9h 03m
Full, 98% of the Moon is Illuminated
Dec 29
Full
Jan 4
Last Quarter
Jan 11
New
Jan 18
First Quarter
Jan 26
Full

Hourly Weather History & Observations

Time (EST) Temp. Windchill Dew Point Humidity Pressure Visibility Wind Dir Wind Speed Gust Speed Precip Events Conditions
12:54 AM 27.0 °F 23.0 °F 23.0 °F 85% 30.01 in 10.0 mi NNE 3.5 mph - N/A   Overcast
1:39 AM 26.6 °F 19.1 °F 23.0 °F 86% 29.95 in 10.0 mi ESE 6.9 mph - N/A   Overcast
1:54 AM 27.0 °F 19.5 °F 23.0 °F 85% 29.98 in 10.0 mi ESE 6.9 mph - N/A   Overcast
2:54 AM 27.0 °F 18.7 °F 21.9 °F 81% 29.94 in 10.0 mi East 8.1 mph - N/A   Overcast
3:54 AM 27.0 °F 21.6 °F 21.0 °F 78% 29.95 in 10.0 mi East 4.6 mph - N/A   Mostly Cloudy
4:20 AM 26.6 °F 19.1 °F 21.2 °F 80% 29.90 in 10.0 mi ESE 6.9 mph - N/A   Overcast
4:54 AM 26.1 °F 19.4 °F 21.0 °F 81% 29.92 in 10.0 mi ENE 5.8 mph - N/A   Overcast
5:54 AM 25.0 °F 16.3 °F 21.9 °F 88% 29.90 in 6.0 mi ENE 8.1 mph - 0.00 in Snow Light Snow
6:41 AM 26.6 °F 18.2 °F 21.2 °F 80% 29.83 in 2.0 mi East 8.1 mph - 0.00 in Snow Light Snow
6:48 AM 24.8 °F 16.1 °F 21.2 °F 86% 29.82 in 1.2 mi East 8.1 mph - 0.01 in Snow Light Snow
6:54 AM 24.8 °F 15.3 °F 23.0 °F 93% 29.83 in 1.0 mi East 9.2 mph - N/A Snow Light Snow
7:54 AM 26.1 °F 16.2 °F 23.0 °F 88% 29.81 in 1.8 mi NE 10.4 mph - 0.01 in Snow Light Snow
8:09 AM 26.6 °F 15.7 °F 23.0 °F 86% 29.77 in 0.5 mi ENE 12.7 mph - 0.00 in Snow Light Snow
8:30 AM 24.8 °F 15.3 °F 23.0 °F 93% 29.77 in 0.5 mi ENE 9.2 mph - 0.01 in Snow Snow
8:54 AM 26.1 °F 16.8 °F 23.0 °F 88% 29.80 in 0.5 mi ENE 9.2 mph - 0.02 in Snow Snow
9:54 AM 26.1 °F 20.5 °F 24.1 °F 92% 29.80 in 0.5 mi East 4.6 mph - 0.04 in Fog , Snow Snow
10:54 AM 26.1 °F 18.4 °F 24.1 °F 92% 29.78 in 0.5 mi NE 6.9 mph - 0.04 in Fog , Snow Snow
11:33 AM 26.6 °F 17.5 °F 23.0 °F 86% 29.72 in 0.5 mi NE 9.2 mph - 0.03 in Snow Light Snow
11:54 AM 26.1 °F 16.8 °F 23.0 °F 88% 29.73 in 1.0 mi NE 9.2 mph - 0.03 in Snow Light Snow
12:16 PM 26.6 °F 17.5 °F 24.8 °F 93% 29.68 in 0.8 mi NNE 9.2 mph - 0.00 in Snow Light Snow
12:37 PM 26.6 °F 18.2 °F 24.8 °F 93% 29.67 in 1.0 mi NNE 8.1 mph - 0.01 in Snow Light Snow
12:54 PM 27.0 °F 19.5 °F 25.0 °F 92% 29.70 in 1.0 mi North 6.9 mph - 0.01 in Snow Light Snow
1:18 PM 28.4 °F 22.2 °F 24.8 °F 86% 29.66 in 0.8 mi North 5.8 mph - 0.01 in Snow Light Snow
1:54 PM 28.0 °F 19.3 °F 25.0 °F 88% 29.69 in 0.5 mi North 9.2 mph - 0.02 in Fog , Snow Snow
2:29 PM 28.4 °F 19.7 °F 24.8 °F 86% 29.67 in 0.8 mi North 9.2 mph - 0.01 in Snow Light Snow
2:54 PM 28.0 °F 17.0 °F 25.0 °F 88% 29.70 in 0.8 mi North 13.8 mph 19.6 mph 0.01 in Snow Light Snow
3:54 PM 28.0 °F 18.1 °F 25.0 °F 88% 29.72 in 1.0 mi North 11.5 mph - 0.01 in Snow Light Snow
4:24 PM 26.6 °F 15.2 °F 24.8 °F 93% 29.70 in 2.5 mi NNW 13.8 mph - 0.01 in Snow Light Snow
4:30 PM 26.6 °F 16.2 °F 24.8 °F 93% 29.70 in 6.0 mi NNW 11.5 mph - 0.01 in Snow Light Snow
4:54 PM 27.0 °F 16.1 °F 24.1 °F 89% 29.74 in 4.0 mi North 12.7 mph - 0.01 in Snow Light Snow
5:46 PM 26.6 °F 17.5 °F 24.8 °F 93% 29.73 in 3.0 mi NNW 9.2 mph - 0.00 in Snow Light Snow
5:54 PM 27.0 °F 16.7 °F 25.0 °F 92% 29.77 in 4.0 mi NW 11.5 mph - 0.00 in Snow Light Snow
6:54 PM 26.1 °F 16.2 °F 23.0 °F 88% 29.80 in 5.0 mi NW 10.4 mph - 0.00 in Snow Light Snow
7:30 PM 26.6 °F 16.2 °F 21.2 °F 80% 29.78 in 2.0 mi NW 11.5 mph - 0.01 in Snow Light Snow
7:54 PM 25.0 °F 14.8 °F 21.9 °F 88% 29.82 in 2.5 mi WNW 10.4 mph - 0.01 in Snow Light Snow
8:01 PM 24.8 °F 15.3 °F 21.2 °F 86% 29.79 in 3.0 mi NW 9.2 mph - 0.00 in Snow Light Snow
8:36 PM 24.8 °F 14.0 °F 21.2 °F 86% 29.80 in 5.0 mi NW 11.5 mph 18.4 mph 0.00 in Snow Light Snow
8:54 PM 25.0 °F 14.2 °F 21.0 °F 85% 29.83 in 10.0 mi NW 11.5 mph - 0.00 in   Overcast
9:40 PM 24.8 °F 16.9 °F 21.2 °F 86% 29.82 in 4.0 mi WNW 6.9 mph - 0.00 in Snow Light Snow
9:54 PM 25.0 °F 17.1 °F 21.0 °F 85% 29.85 in 5.0 mi WNW 6.9 mph - 0.00 in Snow Light Snow
10:14 PM 24.8 °F 16.1 °F 21.2 °F 86% 29.83 in 8.0 mi WNW 8.1 mph - 0.00 in Snow Light Snow
10:45 PM 24.8 °F 16.9 °F 21.2 °F 86% 29.83 in 9.0 mi West 6.9 mph - 0.00 in Snow Light Snow
10:54 PM 25.0 °F 16.3 °F 21.9 °F 88% 29.87 in 9.0 mi West 8.1 mph - 0.00 in Snow Light Snow
11:32 PM 24.8 °F 14.0 °F 21.2 °F 86% 29.85 in 9.0 mi West 11.5 mph - 0.00 in Snow Light Snow
11:54 PM 24.1 °F 15.2 °F 19.9 °F 84% 29.88 in 9.0 mi West 8.1 mph - 0.00 in   Mostly Cloudy